sat.trackr.live / text

‹ back to catalog

USA 167

NORAD 27691 · 2003-008A

PAYLOAD ACTIVE UNKNOWN

§ Identity

Operator
Country
US
Launch date
2003-03-11
Launch site
AFETR
Launch vehicle
Mass (kg)
RCS (m²)

Purposes: comms

External: N2YO · Heavens-Above · Gunter

§ Orbital elements

Epoch: 2026-05-24T10:05:17.501280Z

Period
1,436.05 min
Inclination
10.9167°
Eccentricity
0.0004457
Mean motion
1.00274907 rev/d
Perigee alt
35,766.9 km
Apogee alt
35,804.5 km
Semi-major
42,163.9 km
B*
0.0000e+0
RAAN
43.6241°
Arg perigee
313.2462°
Mean anomaly
274.6263°
Rev number
653

§ Raw data

USA 1671 27691U 03008A   26144.42034145 -.00000002  00000+0  00000+0 0  99972 27691  10.9167  43.6241 0004457 313.2462 274.6263  1.00274907  6536

JSON: /api/v1/satellites/27691 · /tle

For live sub-satellite position, see the globe view (requires WebGL).

§ Visibility from observer

Set your observer location to see the next 7 days of passes ≥ 10°. The values pass through the URL so the page stays shareable.

No JS? Fill the form by hand. The geolocation button needs JavaScript.